Weather History for Clinton, MO

Change the Weather History Date:

Friday, July 26, 2013

  Actual Average (KSZL) Record (KSZL)
Temperature  
Mean Temperature 74 °F -  
Max Temperature 78 °F 86 °F 100 °F (1997)
Min Temperature 69 °F 68 °F 53 °F (2004)
Cooling Degree Days 8    
Growing Degree Days 24 (Base 50)    
Moisture  
Dew Point 68 °F    
Average Humidity 83    
Maximum Humidity 100    
Minimum Humidity 69    
Precipitation  
Precipitation 0.00 in - - ()
Sea Level Pressure  
Sea Level Pressure 30.03 in    
Wind  
Wind Speed 2 mph (South)    
Max Wind Speed 9 mph    
Max Gust Speed -    
Visibility 9 miles    
Events Rain , Thunderstorm    
Averages and records for this station are not official NWS values.
T = Trace of Precipitation, MM = Missing Value Source: NWS Daily Summary

Daily Weather History Graph

Daily Weather History Graph

Search for Another Location

Airport:

Trip Planner

Search our weather history database for the weather conditions in past years. The results will help you decide how hot, cold, wet, or windy it might be!

Date:

Astronomy

Jul. 26, 2013 Rise Set
Actual Time 6:12 AM CDT 8:29 PM CDT
Civil Twilight 5:42 AM CDT 8:59 PM CDT
Nautical Twilight 5:05 AM CDT 9:36 PM CDT
Astronomical Twilight 4:24 AM CDT 10:16 PM CDT
Moon 10:49 PM CDT (7/26) 10:44 AM CDT (7/26)
Length of Visible Light 15h 17m
Length of Day
14h 17m
Waning Gibbous, 80% of the Moon is Illuminated
Jul 26
Waning Gibbous
Jul 29
Last Quarter
Aug 6
New
Aug 14
First Quarter
Aug 20
Full

Hourly Weather History & Observations

Time (CDT) Temp. Dew Point Humidity Pressure Visibility Wind Dir Wind Speed Gust Speed Precip Events Conditions
12:15 AM 75.2 °F 64.4 °F 69% 30.04 in 10.0 mi Calm Calm - N/A   Scattered Clouds
12:35 AM 75.2 °F 64.4 °F 69% 30.04 in 10.0 mi Calm Calm - N/A   Mostly Cloudy
12:55 AM 75.2 °F 64.4 °F 69% 30.03 in 10.0 mi Calm Calm - N/A   Partly Cloudy
1:15 AM 75.2 °F 64.4 °F 69% 30.02 in 10.0 mi SE 5.8 mph - N/A   Clear
1:35 AM 75.2 °F 64.4 °F 69% 30.02 in 10.0 mi SSE 4.6 mph - N/A   Partly Cloudy
1:55 AM 75.2 °F 64.4 °F 69% 30.02 in 10.0 mi South 5.8 mph - N/A   Scattered Clouds
2:15 AM 75.2 °F 64.4 °F 69% 30.02 in 10.0 mi South 3.5 mph - N/A   Partly Cloudy
2:35 AM 75.2 °F 64.4 °F 69% 30.02 in 10.0 mi Calm Calm - N/A   Clear
2:55 AM 73.4 °F 66.2 °F 78% 30.02 in 10.0 mi Calm Calm - N/A   Partly Cloudy
3:15 AM 73.4 °F 64.4 °F 73% 30.01 in 10.0 mi Calm Calm - N/A   Mostly Cloudy
3:35 AM 73.4 °F 64.4 °F 73% 30.01 in 10.0 mi Calm Calm - N/A   Mostly Cloudy
3:55 AM 73.4 °F 64.4 °F 73% 30.01 in 10.0 mi Calm Calm - N/A   Mostly Cloudy
4:15 AM 73.4 °F 64.4 °F 73% 30.00 in 10.0 mi Calm Calm - N/A   Mostly Cloudy
4:35 AM 73.4 °F 64.4 °F 73% 30.00 in 10.0 mi Calm Calm - N/A   Mostly Cloudy
4:55 AM 73.4 °F 64.4 °F 73% 30.00 in 10.0 mi Calm Calm - N/A   Overcast
5:15 AM 73.4 °F 66.2 °F 78% 30.01 in 10.0 mi Calm Calm - N/A   Mostly Cloudy
5:35 AM 73.4 °F 66.2 °F 78% 30.01 in 10.0 mi South 4.6 mph - N/A   Mostly Cloudy
5:55 AM 73.4 °F 66.2 °F 78% 30.01 in 10.0 mi Calm Calm - N/A   Light Drizzle
6:15 AM 73.4 °F 66.2 °F 78% 30.02 in 9.0 mi West 5.8 mph - N/A   Light Drizzle
6:35 AM 71.6 °F 69.8 °F 94% 30.02 in 3.0 mi North 3.5 mph - N/A   Light Drizzle
6:55 AM 71.6 °F 69.8 °F 94% 30.02 in 8.0 mi Calm Calm - N/A Thunderstorm Light Drizzle
7:15 AM 71.6 °F 69.8 °F 94% 30.03 in 5.0 mi Calm Calm - N/A Thunderstorm Drizzle
7:35 AM 71.6 °F 69.8 °F 94% 30.03 in 5.0 mi WNW 4.6 mph - N/A   Light Drizzle
7:55 AM 71.6 °F 69.8 °F 94% 30.02 in 7.0 mi Calm Calm - N/A Thunderstorm Scattered Clouds
8:15 AM 71.6 °F 69.8 °F 94% 30.04 in 8.0 mi East 3.5 mph - N/A Thunderstorm Light Drizzle
8:35 AM 71.6 °F 69.8 °F 94% 30.05 in 7.0 mi Calm Calm - N/A   Mostly Cloudy
8:55 AM 71.6 °F 69.8 °F 94% 30.05 in 7.0 mi Calm Calm - N/A Thunderstorm Mostly Cloudy
9:15 AM 71.6 °F 69.8 °F 94% 30.05 in 7.0 mi Calm Calm - N/A   Light Drizzle
9:35 AM 71.6 °F 69.8 °F 94% 30.07 in 7.0 mi Calm Calm - N/A   Scattered Clouds
9:55 AM 71.6 °F 71.6 °F 100% 30.07 in 7.0 mi South 5.8 mph - N/A   Scattered Clouds
10:15 AM 71.6 °F 71.6 °F 100% 30.07 in 6.0 mi Calm Calm - N/A   Mostly Cloudy
10:35 AM 71.6 °F 71.6 °F 100% 30.07 in 5.0 mi Calm Calm - N/A Rain Light Rain
10:55 AM 71.6 °F 69.8 °F 94% 30.07 in 4.0 mi Calm Calm - N/A Rain Light Rain
11:15 AM 71.6 °F 69.8 °F 94% 30.07 in 3.0 mi South 3.5 mph - N/A Rain Light Rain
11:35 AM 71.6 °F 69.8 °F 94% 30.07 in 5.0 mi South 6.9 mph - N/A Rain Light Rain
11:55 AM 71.6 °F 68.0 °F 88% 30.07 in 5.0 mi South 5.8 mph - N/A Rain Light Rain
12:15 PM 71.6 °F 68.0 °F 88% 30.06 in 7.0 mi South 4.6 mph - N/A   Scattered Clouds
12:35 PM 71.6 °F 66.2 °F 83% 30.07 in 9.0 mi South 4.6 mph - N/A   Partly Cloudy
12:55 PM 73.4 °F 66.2 °F 78% 30.07 in 10.0 mi Calm Calm - N/A   Clear
1:15 PM 73.4 °F 68.0 °F 83% 30.07 in 9.0 mi Calm Calm - N/A   Mostly Cloudy
1:35 PM 73.4 °F 66.2 °F 78% 30.07 in 4.0 mi Calm Calm - N/A Rain Light Rain
1:55 PM 71.6 °F 68.0 °F 88% 30.06 in 3.0 mi Calm Calm - N/A   Light Drizzle
2:15 PM 71.6 °F 68.0 °F 88% 30.06 in 9.0 mi Calm Calm - N/A   Mostly Cloudy
2:35 PM 73.4 °F 69.8 °F 88% 30.05 in 9.0 mi Calm Calm - N/A   Mostly Cloudy
2:55 PM 73.4 °F 69.8 °F 88% 30.04 in 9.0 mi Calm Calm - N/A   Mostly Cloudy
3:15 PM 75.2 °F 69.8 °F 83% 30.04 in 9.0 mi South 5.8 mph - N/A   Mostly Cloudy
3:35 PM 75.2 °F 71.6 °F 89% 30.04 in 10.0 mi SSE 4.6 mph - N/A   Mostly Cloudy
3:55 PM 75.2 °F 69.8 °F 83% 30.04 in 10.0 mi SSE 4.6 mph - N/A   Mostly Cloudy
4:15 PM 77.0 °F 69.8 °F 78% 30.04 in 9.0 mi SSW 4.6 mph - N/A   Overcast
4:35 PM 77.0 °F 69.8 °F 78% 30.03 in 10.0 mi South 8.1 mph - N/A   Mostly Cloudy
4:55 PM 78.8 °F 69.8 °F 74% 30.03 in 10.0 mi South 5.8 mph - N/A   Partly Cloudy
5:15 PM 78.8 °F 69.8 °F 74% 30.03 in 10.0 mi South 5.8 mph - N/A   Scattered Clouds
5:35 PM 78.8 °F 69.8 °F 74% 30.02 in 10.0 mi South 6.9 mph - N/A   Scattered Clouds
5:55 PM 78.8 °F 69.8 °F 74% 30.02 in 10.0 mi South 8.1 mph - N/A   Scattered Clouds
6:15 PM 78.8 °F 69.8 °F 74% 30.02 in 10.0 mi SSE 9.2 mph - N/A   Clear
6:35 PM 78.8 °F 69.8 °F 74% 30.01 in 10.0 mi South 6.9 mph - N/A   Partly Cloudy
6:55 PM 78.8 °F 69.8 °F 74% 30.01 in 10.0 mi South 6.9 mph - N/A   Clear
7:15 PM 78.8 °F 69.8 °F 74% 30.01 in 10.0 mi South 4.6 mph - N/A   Clear
7:35 PM 78.8 °F 69.8 °F 74% 30.00 in 10.0 mi South 5.8 mph - N/A   Clear
7:55 PM 77.0 °F 69.8 °F 78% 30.00 in 10.0 mi South 5.8 mph - N/A   Scattered Clouds
8:15 PM 75.2 °F 69.8 °F 83% 30.00 in 10.0 mi South 4.6 mph - N/A   Scattered Clouds
8:35 PM 73.4 °F 69.8 °F 88% 30.00 in 10.0 mi Calm Calm - N/A   Partly Cloudy
8:55 PM 73.4 °F 69.8 °F 88% 30.00 in 10.0 mi Calm Calm - N/A   Clear
9:15 PM 71.6 °F 68.0 °F 88% 30.00 in 10.0 mi Calm Calm - N/A   Clear
9:35 PM 71.6 °F 68.0 °F 88% 30.01 in 10.0 mi Calm Calm - N/A   Clear
9:55 PM 71.6 °F 68.0 °F 88% 30.01 in 10.0 mi Calm Calm - N/A   Clear
10:15 PM 69.8 °F 68.0 °F 94% 30.02 in 10.0 mi Calm Calm - N/A   Clear
10:35 PM 69.8 °F 69.8 °F 100% 30.02 in 10.0 mi Calm Calm - N/A   Clear
10:55 PM 69.8 °F 68.0 °F 94% 30.02 in 10.0 mi Calm Calm - N/A   Clear
11:15 PM 69.8 °F 68.0 °F 94% 30.03 in 10.0 mi Calm Calm - N/A   Clear
11:35 PM 69.8 °F 68.0 °F 94% 30.03 in 10.0 mi Calm Calm - N/A   Partly Cloudy
11:55 PM 69.8 °F 66.2 °F 88% 30.04 in 10.0 mi Calm Calm - N/A   Partly Cloudy